Home > Weather > Bruchsal > Past weeks

Flag for Germany Weather for the Past 2 Weeks in Bruchsal, Baden-Württemberg, Germany

Now
59 °F

Sunny.


Feels Like: 59 °F
Forecast: 40 / 65 °F
Wind: 5 mph from North

Location: Mannheim City

Current Time: May 4, 2016 at 3:50:12 PM

Latest Report: May 4, 2016 at 2:50 PM


Visibility: 10 mi

Pressure: 30.36 "Hg

Humidity: 25%

Dew Point: 23 °F

Location of BruchsalLocation

Historic Weather in Bruchsal — Graph

°F

Bruchsal Temperature Yesterday

Maximum temperature yesterday: 59 °F (at 9:50 AM)
Minimum temperature yesterday: 46 °F (at 5:20 AM)
Average temperature yesterday: 54 °F

High & Low Weather Summary for the Past Weeks

 TemperatureHumidityPressure
High72 °F (Apr 21, 4:50 PM)100% (Apr 23, 11:20 AM)30.42 "Hg (Apr 23, 11:20 AM)
Low36 °F (Apr 25, 6:50 AM)23% (Apr 21, 4:50 PM)29.59 "Hg (Apr 26, 5:50 AM)
Average52 °F58%30.04 "Hg
* Reported Apr 19 2:20 PM — May 4 2:20 PM, Bruchsal, Weather by CustomWeather, © 2016

Note: Actual official high and low records may vary slightly from our data, if they occured in-between our weather recording intervals... More about our weather records

Advertising

Bruchsal Weather History for the Previous 24 Hours

Scroll right to see more
 ConditionsComfort  
Time TempWeatherWind HumidityBarometerVisibility
2:20 PM
Wed, May 4
59 °FPassing clouds.8 mph31%30.36 "HgN/A
1:20 PM59 °FPassing clouds.6 mph36%30.36 "HgN/A
12:50 PM57 °FPassing clouds.7 mph33%30.36 "HgN/A
12:20 PM55 °FSunny.5 mph38%30.36 "Hg10 mi
11:50 AM57 °FScattered clouds.8 mph41%30.36 "HgN/A
11:20 AM55 °FPassing clouds.6 mph41%30.39 "HgN/A
10:50 AM55 °FPassing clouds.8 mph41%30.39 "HgN/A
9:50 AM54 °FPassing clouds.5 mph51%30.39 "HgN/A
9:20 AM50 °FPassing clouds.5 mph62%30.39 "HgN/A
8:50 AM48 °FSunny.6 mph66%30.39 "Hg10 mi
8:20 AM46 °FSunny.6 mph66%30.39 "Hg10 mi
7:50 AM45 °FSunny.6 mph71%30.39 "Hg10 mi
6:50 AM41 °FClear.2 mph81%30.36 "Hg10 mi
6:20 AM39 °FClear.3 mph81%30.36 "Hg10 mi
5:50 AM39 °FClear.1 mph87%30.36 "Hg10 mi
8:50 PM
Tue, May 3
55 °FSunny.8 mph51%30.24 "Hg10 mi
8:20 PM55 °FSunny.9 mph51%30.21 "Hg10 mi
7:50 PM57 °FPassing clouds.8 mph48%30.21 "HgN/A
7:20 PM57 °FPassing clouds.12 mph48%30.21 "HgN/A
6:50 PM57 °FSunny.14 mph48%30.21 "Hg10 mi
6:20 PM57 °FPassing clouds.15 mph51%30.21 "HgN/A
5:50 PM55 °FSunny.18 mph51%30.18 "Hg10 mi
5:20 PM57 °FPassing clouds.14 mph51%30.18 "HgN/A
4:50 PM54 °FPartly sunny.14 mph63%30.18 "HgN/A
4:20 PM57 °FBroken clouds.9 mph59%30.18 "HgN/A
3:50 PM57 °FPartly sunny.9 mph59%30.18 "HgN/A
3:20 PM57 °FBroken clouds.7 mph67%30.18 "HgN/A
Weather by CustomWeather, © 2016

See weather overviewHow to use our weather pages